Location: Proctor
(47.8934°N, 114.3048°W)
Time: 14:23:44
(UTC+00:00)

AO-92 - Pass Details

Date: 01 July 2022
Orbit: 470 x 481 km, 97.4° (Epoch: 07 August)

Event Time Altitude Azimuth Distance (km) Brightness Sun altitude
Exits shadow 05:35:45 23° 168° (SSE) 1,047 ? -13.6°
Maximum altitude 05:37:50 87° 252° (WSW) 487 ? -13.8°
Drops below altitude 10° 05:41:26 10° 347° (NNW) 1,670 ? -14.1°
Sets 05:43:31 0° 347° (NNW) 2,557 ? -14.3°
